TimePDT,TemperatureF,Dew PointF,Humidity,Sea Level PressureIn,VisibilityMPH,Wind Direction,Wind SpeedMPH,Gust SpeedMPH,PrecipitationIn,Events,Conditions,WindDirDegrees,DateUTC
12:52 AM,44.1,37.9,79,30.11,10.0,NNE,6.9,-,N/A,,Clear,30,2013-10-24 07:52:00
1:52 AM,39.9,37.0,89,30.12,10.0,Calm,Calm,-,N/A,,Clear,0,2013-10-24 08:52:00
2:52 AM,37.9,36.0,93,30.12,10.0,North,5.8,-,N/A,,Clear,360,2013-10-24 09:52:00
3:52 AM,39.0,37.0,93,30.12,9.0,Calm,Calm,-,N/A,,Clear,0,2013-10-24 10:52:00
4:52 AM,36.0,34.0,93,30.12,10.0,North,6.9,-,N/A,,Clear,10,2013-10-24 11:52:00
5:52 AM,37.0,35.1,93,30.12,10.0,Calm,Calm,-,N/A,,Clear,0,2013-10-24 12:52:00
6:52 AM,35.1,34.0,96,30.27,10.0,North,6.9,-,N/A,,Clear,350,2013-10-24 13:52:00
7:52 AM,36.0,35.1,97,30.14,10.0,North,5.8,-,N/A,,Clear,360,2013-10-24 14:52:00
8:52 AM,43.0,39.0,86,30.30,10.0,NNE,5.8,-,N/A,,Clear,30,2013-10-24 15:52:00
9:52 AM,50.0,41.0,71,30.15,10.0,NNE,8.1,-,N/A,,Clear,20,2013-10-24 16:52:00
10:52 AM,55.0,42.1,62,30.15,10.0,NNE,4.6,-,N/A,,Clear,30,2013-10-24 17:52:00
11:52 AM,59.0,43.0,55,30.15,10.0,Calm,Calm,-,N/A,,Clear,0,2013-10-24 18:52:00
12:52 PM,63.0,43.0,48,30.12,10.0,Calm,Calm,-,N/A,,Clear,0,2013-10-24 19:52:00
1:52 PM,66.0,43.0,43,30.10,10.0,Calm,Calm,-,N/A,,Clear,0,2013-10-24 20:52:00
2:52 PM,66.0,43.0,43,30.08,10.0,Calm,Calm,-,N/A,,Clear,0,2013-10-24 21:52:00
3:52 PM,68.0,43.0,40,30.08,10.0,Calm,Calm,-,N/A,,Clear,0,2013-10-24 22:52:00
4:52 PM,66.9,43.0,42,30.07,10.0,Calm,Calm,-,N/A,,Clear,0,2013-10-24 23:52:00
5:52 PM,63.0,43.0,48,30.07,7.0,SW,3.5,-,N/A,,Clear,230,2013-10-25 00:52:00
6:52 PM,57.9,43.0,58,30.23,10.0,WSW,3.5,-,N/A,,Clear,240,2013-10-25 01:52:00
7:05 PM,57.2,42.8,59,30.07,2.5,WSW,3.5,-,N/A,,Clear,250,2013-10-25 02:05:00
7:12 PM,57.2,42.8,59,30.07,10.0,West,3.5,-,N/A,,Clear,270,2013-10-25 02:12:00
7:52 PM,53.1,41.0,64,30.10,10.0,Calm,Calm,-,N/A,,Clear,0,2013-10-25 02:52:00
8:52 PM,52.0,43.0,71,30.10,9.0,Calm,Calm,-,N/A,,Clear,0,2013-10-25 03:52:00
9:52 PM,46.9,39.9,77,30.11,9.0,Calm,Calm,-,N/A,,Clear,0,2013-10-25 04:52:00
10:52 PM,44.1,39.0,82,30.11,9.0,Calm,Calm,-,N/A,,Clear,0,2013-10-25 05:52:00
11:52 PM,39.0,36.0,89,30.13,10.0,North,5.8,-,N/A,,Clear,10,2013-10-25 06:52:00